RYR753Y LERS-EGBB

Flight info

Callsign RYR753Y
Flight time N/A
Altitude 36000
Route NATPI DCT EVNAM DCT TUPAR UN861 DIKRO UM184 HEMEL
Aircraft B38M/M-SDE1FGHILORVWXY/HB1

Departure

Time 2026-05-04 12:11
Airport Reus Airport (LERS)

Arrival

Time N/A
Airport Birmingham Airport (EGBB)
Time Latitude Longitude Altitude Speed Heading
2026-05-04 11:38 41.14662 1.15562 244 ft 0 kts 339°
2026-05-04 12:01 41.14655 1.15565 245 ft 4 kts 339°
2026-05-04 12:02 41.14575 1.15550 245 ft 0 kts 69°
2026-05-04 12:04 41.14579 1.15560 245 ft 3 kts 67°
2026-05-04 12:04 41.14592 1.15604 245 ft 7 kts 68°
2026-05-04 12:05 41.14609 1.15658 245 ft 6 kts 68°
2026-05-04 12:05 41.14622 1.15705 245 ft 5 kts 69°
2026-05-04 12:05 41.14637 1.15756 245 ft 7 kts 69°
2026-05-04 12:05 41.14662 1.15843 245 ft 13 kts 68°
2026-05-04 12:06 41.14703 1.15983 245 ft 19 kts 70°
2026-05-04 12:06 41.14753 1.16156 245 ft 21 kts 70°
2026-05-04 12:06 41.14807 1.16342 245 ft 22 kts 69°
2026-05-04 12:06 41.14865 1.16540 245 ft 24 kts 69°
2026-05-04 12:07 41.14926 1.16746 245 ft 25 kts 70°
2026-05-04 12:07 41.14990 1.16952 245 ft 23 kts 64°
2026-05-04 12:07 41.15048 1.17153 245 ft 24 kts 64°
2026-05-04 12:07 41.15108 1.17361 245 ft 24 kts 71°
2026-05-04 12:08 41.15171 1.17573 245 ft 25 kts 71°
2026-05-04 12:08 41.15232 1.17794 245 ft 26 kts 69°
2026-05-04 12:08 41.15289 1.17991 245 ft 21 kts 69°
2026-05-04 12:08 41.15326 1.18111 245 ft 13 kts 65°
2026-05-04 12:09 41.15341 1.18206 245 ft 9 kts 101°
2026-05-04 12:09 41.15306 1.18251 245 ft 0 kts 159°
2026-05-04 12:09 41.15304 1.18251 245 ft 1 kts 159°
2026-05-04 12:10 41.15269 1.18270 245 ft 11 kts 158°
2026-05-04 12:10 41.15209 1.18276 245 ft 8 kts 209°
2026-05-04 12:10 41.15178 1.18216 245 ft 9 kts 248°
2026-05-04 12:10 41.15094 1.17934 245 ft 71 kts 249°
2026-05-04 12:11 41.14820 1.17001 245 ft 143 kts 249°
2026-05-04 12:11 41.14392 1.15565 397 ft 189 kts 249°
2026-05-04 12:11 41.13848 1.13877 1258 ft 198 kts 237°
2026-05-04 12:11 41.13090 1.12395 2444 ft 199 kts 234°
2026-05-04 12:12 41.12299 1.10765 3059 ft 222 kts 237°
2026-05-04 12:12 41.11447 1.08937 3691 ft 242 kts 237°
2026-05-04 12:12 41.10544 1.06967 4424 ft 258 kts 238°
2026-05-04 12:12 41.09629 1.04956 5478 ft 258 kts 237°
2026-05-04 12:13 41.08697 1.02896 6471 ft 262 kts 237°
2026-05-04 12:14 41.03485 0.87562 11496 ft 329 kts 283°
2026-05-04 12:15 41.04580 0.84836 12159 ft 346 kts 308°
2026-05-04 12:15 41.06553 0.82979 13058 ft 357 kts 334°
2026-05-04 12:15 41.09026 0.82366 13803 ft 371 kts 360°
2026-05-04 12:15 41.11524 0.83136 14452 ft 381 kts 22°
2026-05-04 12:16 41.13949 0.84706 15092 ft 385 kts 22°
2026-05-04 12:16 41.16389 0.86075 15740 ft 387 kts 20°
2026-05-04 12:16 41.18912 0.87374 16366 ft 391 kts 18°
2026-05-04 12:16 41.21479 0.88634 16952 ft 396 kts 17°
2026-05-04 12:17 41.24118 0.89900 17573 ft 400 kts 17°
2026-05-04 12:17 41.26719 0.91130 18172 ft 404 kts 17°
2026-05-04 12:17 41.29381 0.92381 18669 ft 408 kts 17°
2026-05-04 12:17 41.32069 0.93641 19175 ft 411 kts 17°
2026-05-04 12:18 41.34779 0.94920 19677 ft 416 kts 18°
2026-05-04 12:18 41.37335 0.96767 20153 ft 422 kts 34°
2026-05-04 12:18 41.39738 0.99039 20623 ft 426 kts 34°
2026-05-04 12:18 41.42166 1.01323 21102 ft 429 kts 34°
2026-05-04 12:19 41.44608 1.03641 21568 ft 433 kts 34°
2026-05-04 12:19 41.47071 1.05988 22051 ft 437 kts 34°
2026-05-04 12:19 41.49553 1.08355 22503 ft 441 kts 34°
2026-05-04 12:19 41.52057 1.10748 22971 ft 444 kts 34°
2026-05-04 12:20 41.54748 1.12771 23412 ft 445 kts 18°
2026-05-04 12:20 41.57717 1.13919 23829 ft 446 kts 11°
2026-05-04 12:20 41.60741 1.14973 24127 ft 451 kts 11°
2026-05-04 12:20 41.63788 1.16004 24568 ft 453 kts 11°
2026-05-04 12:21 41.66855 1.17019 24959 ft 456 kts 10°
2026-05-04 12:21 41.69948 1.18032 25370 ft 459 kts 10°
2026-05-04 12:21 41.73059 1.19048 25759 ft 462 kts 10°
2026-05-04 12:21 41.76191 1.20071 26152 ft 465 kts 10°
2026-05-04 12:22 41.79345 1.21101 26554 ft 468 kts 10°
2026-05-04 12:22 41.82517 1.22138 26920 ft 471 kts
2026-05-04 12:22 41.85709 1.23183 27298 ft 473 kts
2026-05-04 12:22 41.88918 1.24235 27655 ft 476 kts
2026-05-04 12:23 41.92149 1.25295 28018 ft 479 kts 10°
2026-05-04 12:23 41.95399 1.26362 28338 ft 482 kts
2026-05-04 12:23 41.98668 1.27436 28681 ft 485 kts
2026-05-04 12:23 42.01958 1.28518 29018 ft 488 kts
2026-05-04 12:24 42.05260 1.29607 29346 ft 491 kts
2026-05-04 12:24 42.08586 1.30705 29675 ft 493 kts
2026-05-04 12:24 42.11926 1.31806 30002 ft 496 kts
2026-05-04 12:24 42.15287 1.32917 30297 ft 499 kts
2026-05-04 12:25 42.18666 1.34019 30566 ft 500 kts
2026-05-04 12:25 42.22085 1.34417 30917 ft 489 kts 350°
2026-05-04 12:25 42.28824 1.33250 31246 ft 489 kts 344°
2026-05-04 12:26 42.32185 1.32553 31580 ft 490 kts 344°
2026-05-04 12:26 42.35569 1.31821 31704 ft 495 kts 344°
2026-05-04 12:26 42.38968 1.31071 32041 ft 495 kts 344°
2026-05-04 12:26 42.42368 1.30314 32375 ft 495 kts 344°
2026-05-04 12:27 42.45768 1.29555 32707 ft 496 kts 344°
2026-05-04 12:27 42.49169 1.28795 33045 ft 495 kts 343°
2026-05-04 12:27 42.52566 1.28034 33364 ft 495 kts 343°
2026-05-04 12:27 42.55959 1.27273 33687 ft 494 kts 343°
2026-05-04 12:28 42.59350 1.26512 34020 ft 493 kts 343°
2026-05-04 12:28 42.62732 1.25752 34309 ft 493 kts 343°
2026-05-04 12:28 42.66119 1.24991 34621 ft 493 kts 343°
2026-05-04 12:28 42.69499 1.24231 34950 ft 492 kts 343°
2026-05-04 12:29 42.72892 1.23568 35260 ft 495 kts 348°
2026-05-04 12:29 42.76318 1.23151 35431 ft 493 kts 348°
2026-05-04 12:29 42.79724 1.22708 35707 ft 490 kts 348°
2026-05-04 12:29 42.83108 1.22248 35945 ft 489 kts 347°
2026-05-04 12:30 42.89902 1.21304 35910 ft 491 kts 348°
2026-05-04 12:30 42.96700 1.20355 35912 ft 491 kts 348°
2026-05-04 12:31 43.03450 1.19411 35935 ft 491 kts 348°
2026-05-04 12:31 43.10240 1.18459 35917 ft 490 kts 348°
2026-05-04 12:32 43.20424 1.17028 35909 ft 490 kts 348°
2026-05-04 12:33 43.27219 1.16070 35957 ft 491 kts 348°
2026-05-04 12:33 43.34007 1.15112 35892 ft 489 kts 348°
2026-05-04 12:34 43.40799 1.14151 35940 ft 491 kts 348°
2026-05-04 12:34 43.47584 1.13187 35928 ft 489 kts 348°
2026-05-04 12:35 43.54355 1.12224 35926 ft 489 kts 348°
2026-05-04 12:35 43.61031 1.10797 35905 ft 476 kts 333°
2026-05-04 12:36 43.67109 1.07307 35901 ft 474 kts 331°
2026-05-04 12:36 43.73174 1.03740 35937 ft 474 kts 330°
2026-05-04 12:37 43.79230 1.00117 35931 ft 474 kts 330°
2026-05-04 12:37 43.85278 0.96484 35939 ft 474 kts 330°
2026-05-04 12:38 43.91328 0.92841 35936 ft 474 kts 330°
2026-05-04 12:38 43.97383 0.89188 35934 ft 474 kts 330°
2026-05-04 12:39 44.03434 0.85528 35950 ft 474 kts 330°
2026-05-04 12:39 44.09495 0.81854 35940 ft 476 kts 330°
2026-05-04 12:40 44.15566 0.78167 35939 ft 476 kts 330°
2026-05-04 12:40 44.21637 0.74471 35945 ft 478 kts 330°
2026-05-04 12:41 44.27740 0.70746 35938 ft 479 kts 330°
2026-05-04 12:41 44.33846 0.67012 35927 ft 479 kts 330°
2026-05-04 12:42 44.39947 0.63272 35926 ft 479 kts 330°
2026-05-04 12:42 44.46051 0.59522 35933 ft 479 kts 331°
2026-05-04 12:43 44.52153 0.55763 35925 ft 479 kts 331°
2026-05-04 12:43 44.58254 0.51999 35919 ft 479 kts 331°
2026-05-04 12:44 44.64352 0.48225 35926 ft 479 kts 331°
2026-05-04 12:44 44.70437 0.44453 35919 ft 478 kts 331°
2026-05-04 12:45 44.76525 0.40670 35906 ft 478 kts 331°
2026-05-04 12:45 44.82608 0.36880 35926 ft 478 kts 331°
2026-05-04 12:46 44.88689 0.33084 35913 ft 478 kts 331°
2026-05-04 12:46 44.94768 0.29279 35907 ft 478 kts 331°
2026-05-04 12:47 45.00844 0.25467 35931 ft 478 kts 331°
2026-05-04 12:47 45.06914 0.21650 35917 ft 477 kts 331°
2026-05-04 12:48 45.12982 0.17827 35917 ft 477 kts 331°
2026-05-04 12:48 45.19049 0.13994 35921 ft 477 kts 331°
2026-05-04 12:49 45.25076 0.10178 35922 ft 477 kts 332°
2026-05-04 12:49 45.31136 0.06332 35918 ft 477 kts 332°
2026-05-04 12:50 45.37200 0.02475 35919 ft 477 kts 332°
2026-05-04 12:50 45.43263 -0.01390 35951 ft 478 kts 332°
2026-05-04 12:51 45.49334 -0.05272 35951 ft 479 kts 332°
2026-05-04 12:51 45.55407 -0.09162 35930 ft 478 kts 332°
2026-05-04 12:52 45.61487 -0.13066 35937 ft 480 kts 332°
2026-05-04 12:52 45.67582 -0.16990 35942 ft 480 kts 332°
2026-05-04 12:53 45.73672 -0.20921 35915 ft 480 kts 332°
2026-05-04 12:53 45.79760 -0.24859 35946 ft 481 kts 332°
2026-05-04 12:54 45.85853 -0.28810 35953 ft 481 kts 332°
2026-05-04 12:54 45.91947 -0.32770 35933 ft 480 kts 332°
2026-05-04 12:55 45.98035 -0.36736 35952 ft 481 kts 332°
2026-05-04 12:55 46.04115 -0.40707 35939 ft 479 kts 332°
2026-05-04 12:56 46.10191 -0.44688 35944 ft 480 kts 332°
2026-05-04 12:56 46.16267 -0.48674 35926 ft 479 kts 332°
2026-05-04 12:57 46.22329 -0.52660 35929 ft 478 kts 332°
2026-05-04 12:57 46.28383 -0.56651 35939 ft 478 kts 332°
2026-05-04 12:58 46.34433 -0.60649 35942 ft 478 kts 332°
2026-05-04 12:58 46.40481 -0.64655 35938 ft 478 kts 332°
2026-05-04 12:58 46.43617 -0.66276 35916 ft 482 kts 346°
2026-05-04 12:59 46.45816 -0.66728 35962 ft 482 kts 352°
2026-05-04 12:59 46.52502 -0.67879 35933 ft 484 kts 351°
2026-05-04 13:00 46.59198 -0.69010 35960 ft 485 kts 351°
2026-05-04 13:00 46.65894 -0.70138 35960 ft 484 kts 351°
2026-05-04 13:01 46.72583 -0.71267 35960 ft 484 kts 351°
2026-05-04 13:01 46.79274 -0.72400 35957 ft 484 kts 351°
2026-05-04 13:02 46.85963 -0.73535 35964 ft 484 kts 351°
2026-05-04 13:02 46.92654 -0.74672 35961 ft 484 kts 351°
2026-05-04 13:03 46.99299 -0.75806 35965 ft 484 kts 351°
2026-05-04 13:03 47.05984 -0.76948 35963 ft 484 kts 351°
2026-05-04 13:04 47.12672 -0.78094 35958 ft 484 kts 351°
2026-05-04 13:04 47.19358 -0.79243 35967 ft 484 kts 351°
2026-05-04 13:05 47.26051 -0.80395 35962 ft 484 kts 351°
2026-05-04 13:05 47.32746 -0.81552 35956 ft 484 kts 351°
2026-05-04 13:06 47.39444 -0.82712 35955 ft 485 kts 351°
2026-05-04 13:06 47.46141 -0.83873 35962 ft 485 kts 351°
2026-05-04 13:07 47.52847 -0.85029 35952 ft 485 kts 353°
2026-05-04 13:07 47.59581 -0.85818 35962 ft 486 kts 353°
2026-05-04 13:08 47.66309 -0.86634 35956 ft 485 kts 353°
2026-05-04 13:08 47.73035 -0.87459 35956 ft 485 kts 353°
2026-05-04 13:09 47.79754 -0.88286 35966 ft 485 kts 353°
2026-05-04 13:09 47.86469 -0.89113 35947 ft 483 kts 353°
2026-05-04 13:10 47.93168 -0.89942 35958 ft 483 kts 353°
2026-05-04 13:10 47.99868 -0.90772 35966 ft 483 kts 353°
2026-05-04 13:11 48.06569 -0.91606 35967 ft 482 kts 353°
2026-05-04 13:11 48.13258 -0.92438 35964 ft 482 kts 353°
2026-05-04 13:12 48.19947 -0.93275 35978 ft 483 kts 353°
2026-05-04 13:12 48.26623 -0.94110 35957 ft 480 kts 353°
2026-05-04 13:13 48.33280 -0.94947 35957 ft 480 kts 353°
2026-05-04 13:13 48.39937 -0.95785 35963 ft 480 kts 353°
2026-05-04 13:14 48.46592 -0.96625 35960 ft 479 kts 353°
2026-05-04 13:14 48.53232 -0.97466 35965 ft 479 kts 353°
2026-05-04 13:15 48.59866 -0.98307 35971 ft 479 kts 353°
2026-05-04 13:15 48.66463 -0.99147 35977 ft 478 kts 354°
2026-05-04 13:16 48.73088 -0.99992 35976 ft 477 kts 353°
2026-05-04 13:16 48.79707 -1.00838 35974 ft 477 kts 354°
2026-05-04 13:17 48.86323 -1.01687 35986 ft 477 kts 353°
2026-05-04 13:17 48.92946 -1.02538 35978 ft 478 kts 353°
2026-05-04 13:18 48.99560 -1.03391 35987 ft 478 kts 353°
2026-05-04 13:18 49.06181 -1.04247 35985 ft 477 kts 353°
2026-05-04 13:19 49.12801 -1.05105 35990 ft 477 kts 354°
2026-05-04 13:19 49.19411 -1.05965 35992 ft 477 kts 354°
2026-05-04 13:20 49.26018 -1.06825 35999 ft 477 kts 354°
2026-05-04 13:20 49.32631 -1.07689 35996 ft 477 kts 354°
2026-05-04 13:21 49.39238 -1.08554 35995 ft 476 kts 354°
2026-05-04 13:21 49.45843 -1.09422 36002 ft 477 kts 354°
2026-05-04 13:22 49.52452 -1.10293 36016 ft 476 kts 354°
2026-05-04 13:22 49.59062 -1.11037 35999 ft 476 kts
2026-05-04 13:23 49.65661 -1.10112 36005 ft 477 kts
2026-05-04 13:23 49.72222 -1.09207 36014 ft 477 kts
2026-05-04 13:24 49.78832 -1.08298 36010 ft 477 kts
2026-05-04 13:24 49.85447 -1.07392 36009 ft 477 kts
2026-05-04 13:25 49.95368 -1.06026 36007 ft 477 kts
2026-05-04 13:25 50.01982 -1.05112 36010 ft 477 kts
2026-05-04 13:26 50.08600 -1.04193 36010 ft 477 kts
2026-05-04 13:26 50.15219 -1.03271 36011 ft 477 kts
2026-05-04 13:27 50.21835 -1.02348 36009 ft 477 kts
2026-05-04 13:27 50.28443 -1.01424 36015 ft 477 kts
2026-05-04 13:28 50.35050 -1.00499 36015 ft 477 kts
2026-05-04 13:28 50.41655 -0.99570 36015 ft 477 kts
2026-05-04 13:29 50.48274 -0.98636 36014 ft 476 kts
2026-05-04 13:29 50.54849 -0.97707 36015 ft 476 kts
2026-05-04 13:30 50.61444 -0.96772 36016 ft 476 kts
2026-05-04 13:30 50.68035 -0.95836 36009 ft 475 kts
2026-05-04 13:31 50.74576 -0.94903 36006 ft 475 kts
2026-05-04 13:31 50.81153 -0.93938 35994 ft 475 kts
2026-05-04 13:32 50.84353 -0.92699 36017 ft 473 kts 20°
2026-05-04 13:32 50.87477 -0.91022 35993 ft 476 kts 18°
2026-05-04 13:32 50.93760 -0.87770 36013 ft 475 kts 18°
2026-05-04 13:33 51.00030 -0.84520 36008 ft 475 kts 18°
2026-05-04 13:33 51.06307 -0.81259 35199 ft 477 kts 18°
2026-05-04 13:34 51.09501 -0.79595 34123 ft 487 kts 18°
2026-05-04 13:34 51.12723 -0.77914 33448 ft 485 kts 18°
2026-05-04 13:34 51.15901 -0.76253 32987 ft 478 kts 18°
2026-05-04 13:34 51.19039 -0.74612 32502 ft 472 kts 18°
2026-05-04 13:35 51.22145 -0.72984 31945 ft 468 kts 18°
2026-05-04 13:35 51.28306 -0.69750 30797 ft 464 kts 18°
2026-05-04 13:35 51.31365 -0.68141 30251 ft 462 kts 17°
2026-05-04 13:36 51.34408 -0.66539 29635 ft 459 kts 17°
2026-05-04 13:36 51.37433 -0.64945 29052 ft 456 kts 17°
2026-05-04 13:36 51.40436 -0.63358 28510 ft 452 kts 17°
2026-05-04 13:36 51.43411 -0.61784 27982 ft 448 kts 17°
2026-05-04 13:37 51.46361 -0.60228 27441 ft 445 kts 17°
2026-05-04 13:37 51.49277 -0.58680 26923 ft 441 kts 17°
2026-05-04 13:37 51.52191 -0.57131 26392 ft 438 kts 17°
2026-05-04 13:37 51.54121 -0.56105 26045 ft 437 kts 17°
2026-05-04 13:38 51.57945 -0.54071 25357 ft 433 kts 17°
2026-05-04 13:38 51.60798 -0.52549 24853 ft 430 kts 17°
2026-05-04 13:38 51.63627 -0.51038 24359 ft 427 kts 17°
2026-05-04 13:38 51.66437 -0.49540 23876 ft 424 kts 16°
2026-05-04 13:39 51.69226 -0.48054 23395 ft 421 kts 16°
2026-05-04 13:39 51.71994 -0.46572 22877 ft 417 kts 17°
2026-05-04 13:39 51.74733 -0.45097 22411 ft 412 kts 17°
2026-05-04 13:39 51.77456 -0.43737 21982 ft 406 kts 10°
2026-05-04 13:40 51.80239 -0.43518 21616 ft 398 kts 351°
2026-05-04 13:40 51.82855 -0.44707 21331 ft 387 kts 332°
2026-05-04 13:40 51.85195 -0.46770 21023 ft 380 kts 328°
2026-05-04 13:40 51.87483 -0.48842 20709 ft 374 kts 328°
2026-05-04 13:41 51.89737 -0.50952 20140 ft 377 kts 328°
2026-05-04 13:41 51.92022 -0.53127 19356 ft 386 kts 327°
2026-05-04 13:41 51.94331 -0.55353 18607 ft 384 kts 327°
2026-05-04 13:42 51.98855 -0.59760 17042 ft 375 kts 327°
2026-05-04 13:42 52.01078 -0.61935 16278 ft 371 kts 327°
2026-05-04 13:42 52.03269 -0.64084 15554 ft 366 kts 327°
2026-05-04 13:42 52.05435 -0.66209 14833 ft 361 kts 327°
2026-05-04 13:43 52.07572 -0.68308 14145 ft 356 kts 327°
2026-05-04 13:43 52.09678 -0.70379 13427 ft 352 kts 326°
2026-05-04 13:43 52.11757 -0.72425 12700 ft 347 kts 326°
2026-05-04 13:43 52.13792 -0.74430 12178 ft 336 kts 326°
2026-05-04 13:44 52.15758 -0.76371 11773 ft 324 kts 326°
2026-05-04 13:44 52.17655 -0.78242 11368 ft 313 kts 326°
2026-05-04 13:44 52.19486 -0.80053 10988 ft 303 kts 326°
2026-05-04 13:44 52.21261 -0.81810 10597 ft 294 kts 326°
2026-05-04 13:45 52.22999 -0.83538 10080 ft 291 kts 324°
2026-05-04 13:45 52.24424 -0.85787 9461 ft 285 kts 299°
2026-05-04 13:45 52.25103 -0.88757 8955 ft 277 kts 280°
2026-05-04 13:45 52.25542 -0.91721 8637 ft 266 kts 282°
2026-05-04 13:46 52.25969 -0.94590 8386 ft 254 kts 281°
2026-05-04 13:46 52.26370 -0.97358 8137 ft 250 kts 281°
2026-05-04 13:46 52.26773 -1.00208 7883 ft 259 kts 281°
2026-05-04 13:46 52.27172 -1.03067 7603 ft 263 kts 281°
2026-05-04 13:47 52.27575 -1.05990 7300 ft 265 kts 280°
2026-05-04 13:47 52.27846 -1.07970 7126 ft 265 kts 281°
2026-05-04 13:47 52.28247 -1.10906 6866 ft 264 kts 281°
2026-05-04 13:47 52.28773 -1.14769 6448 ft 262 kts 281°
2026-05-04 13:48 52.29165 -1.17655 6148 ft 259 kts 281°
2026-05-04 13:48 52.29551 -1.20513 5813 ft 255 kts 281°
2026-05-04 13:48 52.29808 -1.22413 5613 ft 252 kts 281°
2026-05-04 13:48 52.30181 -1.25178 5330 ft 246 kts 281°
2026-05-04 13:49 52.30544 -1.27872 5061 ft 240 kts 281°
2026-05-04 13:49 52.30897 -1.30503 4814 ft 234 kts 279°
2026-05-04 13:49 52.31119 -1.33103 4533 ft 229 kts 275°
2026-05-04 13:49 52.31286 -1.35649 4310 ft 222 kts 275°
2026-05-04 13:50 52.31443 -1.38101 4167 ft 213 kts 275°
2026-05-04 13:50 52.31594 -1.40489 4136 ft 211 kts 275°
2026-05-04 13:50 52.31745 -1.42879 4053 ft 211 kts 275°
2026-05-04 13:50 52.31896 -1.45262 3916 ft 211 kts 275°
2026-05-04 13:51 52.32041 -1.47611 3792 ft 211 kts 275°
2026-05-04 13:51 52.32185 -1.49991 3654 ft 209 kts 275°
2026-05-04 13:51 52.32326 -1.52331 3485 ft 204 kts 275°